Location: ??????????
(48.4699°N, 37.9573°E)
Time: 02:48:50
(UTC+00:00)

Cosmos 2058 Rocket - Pass Details

Date: 20 January 2021
Orbit: 611 x 638 km, 82.5° (Epoch: 24 February)

Event Time Altitude Azimuth Distance (km) Brightness Sun altitude
Rises 15:43:56 0° 349° (N) 2,941 6.5 -15.6°
Reaches altitude 10° 15:46:10 10° 349° (N) 2,031 5.7 -15.9°
Maximum altitude 15:50:41 84° 264° (W) 648 3.1 -16.7°
Drops below altitude 10° 15:55:11 10° 175° (S) 2,023 5.8 -17.4°
Sets 15:57:25 0° 174° (S) 2,928 6.6 -17.7°
